sat.trackr.live / text

‹ back to catalog

STARLINK-31934

NORAD 59877 · 2024-098V

PAYLOAD ACTIVE UNKNOWN

§ Identity

Operator
Country
US
Launch date
2024-05-24
Launch site
AFETR
Launch vehicle
Mass (kg)
RCS (m²)

Purposes: comms

External: N2YO · Heavens-Above · Gunter

§ Orbital elements

Epoch: 2026-09-21T00:40:42.793248Z

Period
94.27 min
Inclination
43.0015°
Eccentricity
0.0001481
Mean motion
15.27585361 rev/d
Perigee alt
482.0 km
Apogee alt
484.0 km
Semi-major
6,861.2 km
B*
2.9315e-4
RAAN
251.1072°
Arg perigee
268.1487°
Mean anomaly
91.9195°
Rev number
13,176

§ Raw data

STARLINK-319341 59877U 24098V   26264.02827307  .00007815  00000+0  29315-3 0  99912 59877  43.0015 251.1072 0001481 268.1487  91.9195 15.27585361131764

JSON: /api/v1/satellites/59877 · /tle

For live sub-satellite position, see the globe view (requires WebGL).

§ Visibility from observer

Set your observer location to see the next 7 days of passes ≥ 10°. The values pass through the URL so the page stays shareable.

No JS? Fill the form by hand. The geolocation button needs JavaScript.